Date,TemperatureHighF,TemperatureAvgF,TemperatureLowF,DewpointHighF,DewpointAvgF,DewpointLowF,HumidityHigh,HumidityAvg,HumidityLow,PressureMaxIn,PressureMinIn,WindSpeedMaxMPH,WindSpeedAvgMPH,GustSpeedMaxMPH,PrecipitationSumIn
2013-1-1,31.1,24.1,11.3,14.4,9.3,-1.0,59,53,46,29.86,29.78,0,0,0,0.04
2013-1-2,26.1,15.7,8.2,8.6,1.1,-3.9,57,52,47,29.92,29.83,0,0,0,0.00
2013-1-3,31.6,23.2,12.2,16.9,8.1,-2.9,60,52,48,29.92,29.81,0,0,0,0.00
2013-1-4,29.7,21.5,12.4,12.4,8.1,1.8,65,56,47,29.95,29.83,8,0,29,0.00
2013-1-5,36.5,28.2,18.9,26.7,15.6,8.4,77,59,45,29.95,29.72,15,1,15,0.00
2013-1-6,35.1,32.1,27.9,22.8,18.2,12.4,61,56,49,29.98,29.63,15,2,15,0.00
2013-1-7,36.3,26.6,17.4,17.5,13.1,9.0,79,58,45,30.04,29.81,21,1,21,0.00
2013-1-8,41.7,32.2,25.9,21.4,16.3,11.7,60,52,44,29.89,29.78,16,1,16,0.04
2013-1-9,48.0,38.7,28.2,26.6,20.7,13.0,57,48,42,30.13,29.75,15,3,19,0.08
2013-1-10,43.5,32.0,22.8,34.5,19.1,12.0,89,59,44,30.19,29.69,15,1,15,0.24
2013-1-11,54.5,48.8,38.3,53.6,40.9,33.8,100,76,54,29.69,29.42,19,2,21,0.55
2013-1-12,58.3,50.2,38.7,37.1,33.4,25.1,85,53,41,29.63,29.48,16,1,16,0.31
2013-1-13,38.7,32.4,20.8,35.4,28.0,7.4,96,84,56,29.86,29.48,12,1,12,0.20
2013-1-14,25.0,19.7,15.3,8.7,5.4,1.7,60,53,48,30.10,29.86,0,0,0,0.00
2013-1-15,30.9,20.4,11.5,13.5,7.5,1.6,70,58,46,30.07,29.81,0,0,0,0.00
2013-1-16,35.4,27.2,16.9,17.4,13.9,8.3,79,58,45,29.81,29.54,17,1,17,0.00
2013-1-17,34.3,28.9,19.2,20.1,12.8,3.5,61,51,45,30.01,29.69,15,2,15,0.00
2013-1-18,38.1,28.6,17.8,18.5,11.3,2.6,56,48,44,30.07,29.66,30,2,30,0.00
2013-1-19,49.3,41.7,35.6,27.1,22.1,17.8,53,46,42,29.66,29.42,25,6,25,0.00
2013-1-20,40.1,21.8,15.4,19.9,5.1,0.1,51,48,44,29.89,29.45,20,6,20,0.00
2013-1-21,18.3,12.8,7.7,1.9,-2.7,-7.5,52,49,48,29.86,29.75,20,5,20,0.00
2013-1-22,12.0,6.8,1.9,-3.5,-8.4,-12.9,49,49,49,29.98,29.83,16,3,16,0.00
2013-1-23,19.8,14.4,7.2,7.1,-0.9,-8.2,62,50,48,29.95,29.72,15,3,15,0.00
2013-1-24,21.9,15.7,7.2,7.1,1.8,-3.8,62,54,47,30.22,29.81,10,0,10,0.00
2013-1-25,25.3,21.5,17.1,12.1,6.2,1.2,58,51,48,30.04,29.63,12,1,12,0.00
2013-1-26,26.8,24.5,21.9,11.4,8.9,6.9,57,51,48,30.04,29.72,12,2,12,0.00
2013-1-27,34.9,27.5,19.0,29.9,13.3,4.7,82,55,46,30.04,29.63,16,2,16,0.00
2013-1-28,48.9,42.8,34.9,48.9,42.3,29.5,100,98,81,29.66,29.51,16,1,16,0.24
2013-1-29,58.5,54.8,40.8,58.5,53.2,40.8,100,95,75,29.54,29.04,29,3,29,1.06
2013-1-30,52.7,42.7,26.1,52.2,38.5,11.9,100,86,55,29.13,28.80,17,2,17,0.75
2013-1-31,25.9,18.1,10.2,13.5,3.8,-4.4,63,53,48,29.60,29.13,0,0,0,0.00
2013-2-1,15.1,8.7,1.9,-0.8,-6.0,-12.1,51,51,49,29.89,29.60,0,0,0,0.00
2013-2-2,26.8,19.7,13.5,12.9,7.8,-1.8,66,59,50,29.75,29.48,11,0,11,0.00
2013-2-3,23.2,15.7,10.0,7.4,2.4,-3.3,62,56,48,29.54,29.45,15,2,15,0.00
2013-2-4,28.6,23.3,18.1,15.0,10.5,3.4,69,58,49,29.54,29.33,10,0,10,0.00
2013-2-5,34.3,25.5,12.9,22.4,14.5,4.7,75,63,46,29.45,29.27,15,1,15,0.00
2013-2-6,39.0,29.9,20.7,18.9,13.8,9.0,62,51,44,29.66,29.45,11,0,11,0.04
2013-2-7,43.9,34.3,26.2,28.5,19.6,13.5,82,55,43,29.57,29.21,12,0,12,0.31
2013-2-8,35.6,32.0,24.1,34.5,18.5,8.5,100,59,45,29.72,29.21,18,2,18,0.00
2013-2-9,38.7,27.1,14.9,19.1,12.5,5.4,73,54,44,29.75,29.48,15,2,15,0.00
2013-2-10,49.5,38.1,28.6,44.3,25.0,12.3,91,60,46,29.48,28.92,27,3,27,0.12
2013-2-11,50.5,36.6,30.7,40.8,18.2,12.9,72,47,43,29.30,28.89,32,6,32,0.00
2013-2-12,33.6,29.5,22.8,15.0,12.1,8.9,56,48,46,29.39,29.24,12,0,12,0.00
2013-2-13,45.9,31.3,19.9,24.6,17.5,9.2,81,58,43,29.24,29.01,22,1,22,0.00
2013-2-14,41.7,36.1,30.9,23.5,20.1,12.4,66,52,45,29.21,28.98,20,3,20,0.00
2013-2-15,32.2,27.7,20.8,19.4,11.8,4.7,68,51,46,29.42,29.19,15,2,15,0.00
2013-2-16,23.5,18.9,10.0,10.5,4.4,-1.8,59,53,47,29.36,29.30,16,3,16,0.00
2013-2-17,32.2,20.6,11.7,13.0,6.3,-0.3,64,54,45,29.45,29.33,12,0,12,0.08
2013-2-18,55.2,39.2,22.6,38.8,21.3,5.9,79,49,41,29.33,28.68,29,5,29,0.12
2013-2-19,45.0,21.6,15.1,39.9,8.2,0.4,83,56,49,29.27,28.68,21,0,21,0.08
2013-2-20,22.6,18.4,14.2,10.5,5.6,1.1,62,57,50,29.51,29.27,0,0,0,0.00
2013-2-21,28.0,24.5,21.4,13.0,10.3,6.8,66,55,47,29.54,29.21,0,0,0,0.04
2013-2-22,34.7,28.5,21.9,30.1,18.7,8.0,86,67,49,29.21,28.98,12,1,12,0.00
2013-2-23,32.2,27.5,25.3,13.8,11.5,9.0,57,51,46,29.13,29.04,7,0,7,0.00
2013-2-24,39.0,27.2,15.4,18.8,11.7,5.1,66,52,44,29.27,29.07,16,0,16,0.16
2013-2-25,43.9,31.0,19.2,26.3,16.7,10.1,80,57,43,29.30,29.13,17,0,17,0.04
2013-2-26,34.3,32.9,31.1,30.6,22.6,14.8,91,67,46,29.13,28.56,15,1,15,0.24
2013-2-27,36.7,33.7,32.7,35.4,31.1,28.3,96,90,77,28.71,28.56,8,0,8,0.24
2013-2-28,39.9,34.6,32.0,33.6,25.4,18.1,100,71,47,29.07,28.71,15,1,15,0.31
2013-3-1,36.0,31.4,27.3,20.0,15.7,10.2,65,52,45,29.21,29.04,15,0,15,0.00
2013-3-2,34.5,28.7,23.0,15.2,11.2,6.5,55,48,45,29.21,29.16,15,1,15,0.00
2013-3-3,34.3,26.8,17.8,15.2,9.7,3.6,54,48,45,29.19,29.10,12,1,12,0.00
2013-3-4,37.0,27.2,16.0,17.6,12.1,3.9,71,54,45,29.19,29.07,11,0,11,0.00
2013-3-5,34.3,30.8,28.0,24.5,18.9,14.6,85,62,46,29.10,28.80,12,1,12,0.00
2013-3-6,38.5,32.1,26.4,28.4,20.7,17.0,85,64,45,29.30,28.95,12,1,12,0.00
2013-3-7,40.5,33.0,21.2,30.6,21.7,9.4,90,65,44,29.45,29.27,8,0,8,0.28
2013-3-8,43.7,27.1,12.6,22.5,12.9,4.0,77,56,43,29.54,29.42,12,0,12,0.16
2013-3-9,44.8,35.8,26.1,23.6,18.8,12.9,58,50,43,29.42,28.98,17,2,17,0.04
2013-3-10,58.5,47.5,37.6,36.0,29.7,22.3,83,51,40,28.98,28.77,14,1,14,0.08
2013-3-11,50.2,43.0,33.8,47.4,35.3,20.4,97,75,49,28.80,28.59,17,1,17,0.20
2013-3-12,37.0,32.9,28.6,25.0,18.9,14.2,73,57,45,29.01,28.80,20,1,20,0.00
2013-3-13,31.6,26.6,21.6,18.5,12.0,5.3,75,54,46,29.33,29.01,17,4,17,0.00
2013-3-14,43.3,30.6,20.5,22.3,13.1,4.8,60,48,43,29.33,29.13,15,1,15,0.00
2013-3-15,47.7,37.0,28.6,35.4,26.3,19.4,88,67,43,29.16,28.83,12,0,12,0.20
2013-3-16,38.7,35.1,29.5,36.5,27.9,13.1,98,77,49,29.13,28.68,12,0,12,0.00
2013-3-17,40.3,32.6,28.6,20.1,14.3,11.3,51,47,44,29.21,29.07,11,0,11,0.00
2013-3-18,35.2,31.5,27.1,32.0,21.5,10.0,89,68,48,29.07,28.62,12,0,12,0.04
2013-3-19,37.2,27.7,20.1,17.6,10.0,4.0,50,47,45,29.07,28.77,25,1,25,0.00
2013-3-20,29.1,23.7,19.0,10.6,7.1,4.4,60,49,46,29.07,28.98,16,2,16,0.00
2013-3-21,32.9,21.3,15.1,14.4,7.5,3.3,64,55,46,29.04,28.95,12,1,12,0.04
2013-3-22,42.4,28.0,16.7,21.5,12.0,5.7,69,51,43,29.07,29.01,15,1,15,0.00
2013-3-23,43.0,29.7,20.5,22.0,13.8,7.6,70,52,43,29.13,29.01,12,0,12,0.00
2013-3-24,39.2,32.7,26.1,19.1,15.7,12.0,57,49,44,29.01,28.62,17,2,17,0.00
2013-3-25,36.5,32.9,28.6,19.6,17.0,13.5,66,52,46,31.61,28.62,17,2,17,0.04
2013-3-26,40.5,34.6,29.7,30.3,20.2,16.5,82,56,44,29.21,28.98,16,2,16,0.00
2013-3-27,44.6,34.8,25.9,23.5,18.9,8.9,69,53,43,29.30,29.21,12,2,12,0.00
2013-3-28,52.2,35.5,21.6,29.1,17.8,8.4,67,49,41,29.30,29.24,12,1,12,0.00
2013-3-29,56.1,38.2,24.1,32.1,19.5,9.8,60,47,40,29.30,29.21,13,2,13,0.00
2013-3-30,59.0,42.0,23.4,34.5,22.4,9.0,64,46,39,29.24,28.92,16,1,16,0.00
2013-3-31,63.1,49.5,38.3,42.8,30.2,18.8,86,49,39,28.92,28.71,17,4,17,0.00
2013-4-1,41.2,33.6,23.7,20.6,15.2,6.7,53,47,43,29.16,28.80,17,4,17,0.00
2013-4-2,46.0,31.7,20.1,24.8,13.6,5.0,56,47,43,29.27,29.13,15,3,16,0.00
2013-4-3,49.1,32.3,18.5,26.8,14.2,4.5,59,47,42,29.39,29.27,21,2,21,0.00
2013-4-4,59.7,40.1,20.8,34.7,20.3,6.3,58,45,39,29.30,28.95,15,1,15,0.00
2013-4-5,54.5,40.9,29.3,31.3,21.4,12.9,61,46,41,29.19,28.95,13,2,14,0.00
2013-4-6,68.2,50.5,29.5,41.6,28.2,13.6,53,42,37,29.16,28.71,26,5,26,0.00
2013-4-7,63.5,53.4,39.9,38.3,32.3,22.3,55,45,39,28.98,28.65,33,4,33,0.00
2013-4-8,73.4,52.6,39.0,51.5,34.0,22.4,89,51,36,28.98,28.68,30,3,30,0.12
2013-4-9,77.4,57.5,39.7,48.2,38.1,28.6,78,50,36,29.01,28.80,23,2,23,0.00
2013-4-10,53.6,49.0,43.3,45.0,40.1,35.4,93,73,56,28.92,28.77,12,0,12,0.24
2013-4-11,46.0,44.2,41.7,45.2,42.8,40.9,98,95,91,28.83,28.54,11,0,11,1.34
2013-4-12,45.5,40.2,37.0,42.6,29.4,19.5,100,68,45,28.83,28.54,20,2,20,0.04
2013-4-13,46.2,39.1,34.7,27.3,21.8,18.3,70,50,43,28.98,28.80,20,2,20,0.00
2013-4-14,66.4,49.1,34.7,39.8,29.0,19.3,59,46,38,29.01,28.74,17,2,17,0.00
2013-4-15,67.1,58.5,46.8,52.6,39.4,32.8,90,51,40,28.95,28.71,21,2,21,0.28
2013-4-16,54.0,46.8,42.4,44.6,34.4,24.3,96,66,41,29.19,28.92,12,1,12,0.51
2013-4-17,55.6,48.5,43.3,48.1,32.5,24.4,95,55,41,29.24,28.80,19,1,19,1.06
2013-4-18,71.1,59.5,48.0,62.8,53.8,44.2,100,84,40,28.83,28.48,27,2,27,0.83
2013-4-19,53.4,39.0,33.8,49.3,23.2,18.5,87,54,45,28.80,28.45,34,6,34,0.20
2013-4-20,46.9,37.1,28.6,25.0,18.6,10.7,61,47,42,29.36,28.77,16,4,16,0.00
2013-4-21,55.6,39.8,23.7,31.9,20.3,9.2,57,46,40,29.48,29.33,17,2,17,0.00
2013-4-22,68.2,51.0,33.3,41.3,29.4,18.7,58,44,37,29.33,29.04,16,2,16,0.00
2013-4-23,67.5,52.4,39.7,51.9,35.9,27.3,93,56,38,29.07,28.77,20,1,20,0.51
2013-4-24,49.1,40.5,36.1,37.9,27.1,19.1,96,61,42,29.07,28.77,16,2,16,0.04
2013-4-25,54.5,44.0,36.0,31.3,24.2,18.3,54,46,41,29.27,28.98,29,3,29,0.00
2013-4-26,67.5,49.8,32.0,41.0,30.6,19.4,78,50,38,29.30,29.19,20,2,20,0.00
2013-4-27,72.0,56.8,38.7,44.3,35.3,25.6,75,46,37,29.24,28.98,17,2,17,0.00
2013-4-28,60.8,56.3,51.3,53.4,42.7,34.3,88,61,42,29.01,28.77,7,0,7,0.16
2013-4-29,73.8,59.8,46.2,61.2,44.6,38.9,100,63,36,28.86,28.80,15,1,15,0.00
2013-4-30,84.6,69.5,57.4,53.1,44.5,38.6,51,41,34,28.95,28.80,24,3,24,0.00
2013-5-1,86.9,72.5,58.1,55.2,46.8,40.6,54,41,34,29.13,28.95,17,2,17,0.00
2013-5-2,83.7,64.3,43.3,52.2,41.6,28.4,57,44,34,29.13,29.01,12,1,12,0.00
2013-5-3,75.7,56.5,42.8,54.2,41.2,28.8,80,58,36,29.04,28.86,12,0,12,0.08
2013-5-4,77.2,66.0,57.9,48.0,40.0,33.7,44,39,36,28.95,28.89,15,1,15,0.00
2013-5-5,77.9,63.0,47.8,48.8,39.0,31.9,56,42,36,28.95,28.89,20,1,20,0.00
2013-5-6,80.8,64.5,53.4,50.6,39.1,30.9,46,39,35,28.92,28.83,12,0,12,0.00
2013-5-7,80.8,63.2,47.8,50.6,39.6,29.4,65,43,35,28.95,28.86,16,0,16,0.00
2013-5-8,82.4,66.1,51.6,51.8,41.9,33.6,63,42,34,28.95,28.83,12,1,12,0.00
2013-5-9,81.1,64.6,48.9,57.6,46.1,33.3,90,54,35,28.92,28.74,14,1,14,0.08
2013-5-10,61.9,54.1,43.3,60.8,46.9,35.1,97,78,50,28.83,28.62,12,0,12,0.08
2013-5-11,61.0,46.7,36.9,47.4,36.1,21.8,98,70,40,28.86,28.68,20,1,20,0.00
2013-5-12,56.1,43.7,34.7,31.9,26.1,18.0,79,51,40,28.98,28.83,16,2,16,0.00
2013-5-13,64.8,48.9,32.2,38.6,28.8,19.8,77,47,38,29.04,28.92,17,1,17,0.00
2013-5-14,90.1,68.4,51.3,57.2,41.4,28.8,42,38,33,28.95,28.59,16,2,16,0.00
2013-5-15,84.6,74.3,60.1,53.1,46.9,37.1,53,38,34,28.77,28.54,21,1,21,0.00
2013-5-16,87.6,67.9,50.2,57.1,46.5,35.6,92,50,34,28.86,28.68,12,0,12,0.00
2013-5-17,83.5,66.6,55.4,52.2,42.2,33.4,56,42,34,28.92,28.71,11,0,11,0.00
2013-5-18,84.6,69.3,58.8,53.1,43.5,34.5,57,40,34,28.92,28.77,12,0,12,0.00
2013-5-19,90.1,73.9,57.6,57.2,48.8,40.4,60,42,33,28.80,28.62,10,0,12,0.00
2013-5-20,88.7,78.6,70.5,60.4,53.0,47.8,69,42,33,28.68,28.51,12,2,25,0.00
2013-5-21,83.5,72.5,63.7,65.0,53.1,44.4,97,54,35,28.54,28.39,15,2,25,0.98
2013-5-22,73.2,67.7,61.7,65.1,56.1,48.3,91,68,43,0.00,40.00,11,1,17,0.35
2013-5-23,62.6,51.4,42.8,59.0,44.9,30.0,96,79,55,18.32,18.32,17,1,17,0.04
2013-5-24,58.1,47.1,36.0,36.0,31.1,24.6,85,56,40,18.32,18.32,15,1,15,0.00
2013-5-25,66.0,51.6,37.4,43.4,34.9,27.3,89,56,38,18.32,18.32,12,0,12,0.00
2013-5-26,73.6,58.4,41.7,46.5,38.6,30.0,88,50,36,18.32,18.32,9,0,9,0.00
2013-5-27,60.8,56.6,51.4,57.9,50.1,36.3,100,81,41,18.32,18.32,10,0,10,0.43
2013-5-28,78.6,68.6,57.9,67.1,57.8,46.0,100,72,38,18.32,18.32,17,1,17,1.02
2013-5-29,84.6,72.0,62.1,67.5,55.7,47.8,100,61,35,18.32,18.32,17,1,17,0.12
2013-5-30,85.1,75.4,67.3,54.9,51.6,48.4,63,44,34,0.00,40.00,14,2,19,0.00
2013-5-31,76.6,70.8,65.5,65.4,55.0,48.1,95,59,40,0.00,40.00,12,1,19,0.28
2013-6-1,75.0,68.7,62.2,66.1,54.6,46.8,96,64,39,0.00,40.00,15,2,17,0.67
2013-6-2,63.1,57.0,46.2,59.6,42.5,28.8,92,60,41,0.00,40.00,11,2,21,0.00
2013-6-3,70.0,54.1,40.5,46.9,37.1,30.0,94,56,37,0.00,40.00,8,0,11,0.00
2013-6-4,75.6,59.6,43.2,52.4,41.2,31.7,92,54,36,0.00,40.00,5,0,8,0.00
2013-6-5,79.0,66.2,56.3,49.3,41.3,33.9,54,41,35,0.00,40.00,7,0,12,0.00
2013-6-6,74.8,64.0,57.4,46.2,40.1,35.3,55,42,36,0.00,40.00,10,0,12,0.00
2013-6-7,74.5,62.1,52.7,51.7,43.4,31.6,88,54,36,0.00,40.00,11,1,12,0.00
2013-6-8,76.5,62.7,49.1,51.6,42.2,31.6,82,49,36,0.00,40.00,6,0,12,0.00
2013-6-9,81.9,70.1,56.8,57.4,49.0,39.4,76,49,35,0.00,40.00,10,0,10,0.04
2013-6-10,78.1,68.8,63.3,67.5,58.3,48.1,100,73,37,0.00,40.00,7,0,12,0.35
2013-6-11,84.9,70.7,61.3,66.6,55.2,46.7,100,64,34,0.00,40.00,10,0,12,0.00
2013-6-12,88.3,74.0,66.0,70.9,62.2,55.5,98,70,35,0.00,40.00,11,0,15,0.31
2013-6-13,73.8,66.0,55.8,64.6,51.3,38.2,100,64,37,0.00,0.00,19,2,24,0.28
2013-6-14,79.3,64.1,52.3,56.4,48.4,41.3,95,61,36,0.00,0.00,12,0,12,0.00
2013-6-15,73.6,65.8,57.9,66.9,56.2,47.3,100,74,43,0.00,0.00,10,0,10,0.00
2013-6-16,83.5,73.2,66.4,61.0,53.1,47.5,77,51,35,0.00,0.00,15,0,15,0.04
2013-6-17,86.9,74.6,64.2,69.1,56.4,43.7,96,58,34,0.00,0.00,12,0,12,0.00
2013-6-18,79.2,68.4,60.8,60.6,49.3,38.5,88,53,35,0.00,0.00,12,0,12,0.00
2013-6-19,80.8,65.3,50.7,50.6,41.1,33.2,56,42,35,0.00,0.00,11,0,11,0.00
2013-6-20,85.6,70.4,55.6,54.5,47.4,34.3,62,45,34,0.00,0.00,7,0,7,0.00
2013-6-21,86.5,73.0,65.8,63.1,54.4,46.4,86,55,34,0.00,0.00,12,1,12,0.08
2013-6-22,84.0,74.2,66.9,67.0,59.4,49.1,93,63,38,0.00,0.00,10,0,10,0.00
2013-6-23,88.5,75.8,65.8,62.3,53.6,46.6,79,49,33,0.00,0.00,17,1,17,0.00
2013-6-24,85.8,74.1,66.2,62.5,53.6,47.8,84,51,34,0.00,40.00,10,1,15,0.24
2013-6-25,88.9,74.5,66.0,76.9,61.8,42.8,97,70,33,0.00,0.00,22,1,22,0.79
2013-6-26,81.9,71.5,64.8,70.6,55.3,47.8,93,59,36,0.00,0.00,15,0,15,1.65
2013-6-27,87.3,73.7,65.8,70.2,53.6,41.9,85,52,34,0.00,0.00,9,0,10,0.31
2013-6-28,82.0,71.1,64.0,68.8,50.0,40.8,86,49,35,0.00,0.00,13,0,13,0.04
2013-6-29,77.2,65.9,61.3,48.9,44.9,40.2,55,47,36,0.00,40.00,9,0,9,1.30
2013-6-30,76.6,67.1,62.2,63.2,51.7,41.1,87,61,37,0.00,40.00,8,0,12,0.08
2013-7-1,77.5,65.5,54.5,48.5,40.5,31.9,49,40,36,0.00,40.00,12,1,19,0.00
2013-7-2,64.4,62.3,58.8,46.7,41.2,34.9,55,46,38,0.00,40.00,8,0,12,0.31
2013-7-3,77.4,68.4,62.6,61.9,49.6,41.1,79,53,36,0.00,40.00,12,0,15,0.00
2013-7-4,78.6,69.0,60.3,55.2,45.4,41.1,61,44,36,0.00,40.00,6,0,8,0.00
2013-7-5,83.8,72.0,61.5,54.9,47.2,41.3,55,42,34,0.00,40.00,6,0,8,0.00
2013-7-6,81.1,73.0,67.5,52.4,47.7,43.7,49,41,35,0.00,40.00,7,0,10,0.00
2013-7-7,84.7,74.6,66.7,53.3,48.6,44.7,50,40,34,0.00,0.00,12,1,12,0.00
2013-7-8,81.0,74.6,69.8,53.8,47.8,44.5,46,39,35,0.00,40.00,12,0,17,0.20
2013-7-9,87.1,76.8,71.4,59.9,53.9,46.2,56,45,34,0.00,40.00,11,0,17,0.12
2013-7-10,81.0,74.7,61.0,68.8,53.1,35.8,71,48,35,0.00,40.00,8,0,12,0.00
2013-7-11,79.9,67.1,56.7,49.8,42.0,34.9,51,40,35,0.00,40.00,11,0,15,0.00
2013-7-12,84.0,68.3,54.3,52.6,42.6,33.0,50,40,34,0.00,40.00,7,0,11,0.00
2013-7-13,86.0,70.9,57.4,54.4,45.2,36.7,55,40,34,0.00,40.00,7,0,7,0.00
2013-7-14,89.8,76.9,65.1,56.8,50.6,43.6,56,41,33,0.00,40.00,0,0,7,0.00
2013-7-15,90.1,79.1,71.4,65.2,54.1,47.6,66,43,33,0.00,40.00,7,0,10,0.00
2013-7-16,92.8,80.8,71.8,71.0,55.5,48.7,77,43,32,0.00,40.00,7,0,11,0.00
2013-7-17,92.8,81.0,71.2,62.4,54.2,49.0,58,41,32,0.00,40.00,7,0,11,0.00
2013-7-18,94.5,82.3,72.7,60.6,54.7,49.5,54,39,32,0.00,40.00,8,0,12,0.00
2013-7-19,94.6,83.7,74.7,60.2,53.9,49.4,46,36,32,0.00,40.00,13,1,21,0.00
2013-7-20,89.2,79.3,68.4,56.4,49.6,41.8,38,36,33,0.00,40.00,7,0,11,0.00
2013-7-21,89.8,75.7,64.2,56.8,47.1,38.9,42,37,33,0.00,40.00,5,0,8,0.00
2013-7-22,86.0,74.3,66.9,54.4,47.2,41.4,47,39,34,0.00,40.00,0,0,5,0.24
2013-7-23,81.0,70.3,57.7,50.7,44.0,33.6,45,39,35,0.00,40.00,15,1,19,0.04
2013-7-24,76.5,62.2,48.9,47.5,36.8,26.8,43,39,36,0.00,40.00,7,0,12,0.00
2013-7-25,81.0,65.3,52.2,50.7,39.5,29.9,45,39,35,0.00,40.00,8,0,12,0.00
2013-7-26,75.4,66.6,59.0,46.6,40.3,34.7,40,38,36,0.00,40.00,9,0,13,0.04
2013-7-27,70.7,64.8,57.0,45.1,40.4,32.9,47,41,37,0.00,40.00,12,0,16,0.04
2013-7-28,69.6,59.3,50.7,42.6,34.7,28.4,42,40,37,0.00,40.00,10,0,15,0.00
2013-7-29,76.5,63.4,54.0,47.5,37.8,30.8,41,39,36,0.00,40.00,8,0,17,0.00
2013-7-30,77.4,65.0,52.0,48.3,39.5,29.7,45,39,36,0.00,40.00,6,0,10,0.00
2013-7-31,70.3,66.8,63.0,46.8,43.1,39.7,46,42,38,0.00,40.00,0,0,7,0.08
2013-8-1,81.0,67.6,61.3,54.5,45.5,38.5,57,46,35,0.00,40.00,0,0,8,0.00
2013-8-2,79.2,69.8,62.2,49.4,45.2,40.6,48,42,35,0.00,40.00,9,0,12,2.17
2013-8-3,78.6,68.9,57.4,51.9,45.1,33.2,53,43,36,0.00,40.00,12,0,12,0.00
2013-8-4,77.2,64.5,54.9,48.2,39.3,32.4,47,40,36,0.00,40.00,8,0,12,0.00
2013-8-5,73.4,64.0,53.1,45.4,38.7,31.0,44,39,36,0.00,40.00,8,0,11,0.00
2013-8-6,79.7,69.8,63.0,49.6,43.9,38.4,47,40,35,0.00,40.00,4,0,8,0.43
2013-8-7,84.7,72.2,67.8,54.4,47.8,42.7,50,42,34,0.00,40.00,10,0,12,0.47
2013-8-8,79.0,69.3,63.0,49.4,45.1,38.2,53,42,35,0.00,40.00,5,0,12,0.00
2013-8-9,81.1,69.4,59.7,50.9,42.8,36.5,45,38,35,0.00,40.00,5,0,11,0.00
2013-8-10,82.4,71.1,61.2,51.8,44.3,36.0,45,38,34,0.00,40.00,10,0,11,0.00
2013-8-11,81.3,68.1,56.8,51.0,41.7,33.7,43,38,35,0.00,40.00,11,0,11,0.00
2013-8-12,83.3,71.7,63.7,52.0,44.3,38.4,40,37,34,0.00,40.00,10,0,12,0.00
2013-8-13,69.8,62.8,52.0,42.9,38.4,29.0,46,41,37,0.00,40.00,15,2,20,0.00
2013-8-14,71.6,57.6,46.0,43.9,33.6,25.1,44,40,37,0.00,40.00,9,0,12,0.00
2013-8-15,74.8,60.3,47.5,46.1,35.9,26.6,45,40,36,0.00,40.00,10,0,15,0.00
2013-8-16,80.6,64.5,52.0,50.4,39.3,30.3,46,40,35,0.00,40.00,6,0,10,0.00
2013-8-17,80.6,65.6,53.8,50.4,40.0,31.4,45,39,35,0.00,40.00,6,0,10,0.00
2013-8-18,84.6,67.4,55.6,53.1,41.4,33.2,45,39,34,0.00,40.00,0,0,11,0.00
2013-8-19,84.2,69.2,56.7,52.8,42.7,34.3,45,39,34,0.00,40.00,7,0,10,0.00
2013-8-20,84.9,72.2,62.6,53.4,45.3,39.4,47,39,34,0.00,40.00,8,0,11,0.00
2013-8-21,88.2,75.2,65.8,55.8,47.0,40.3,42,37,33,0.00,40.00,8,1,17,0.00
2013-8-22,74.7,70.1,66.2,50.0,45.3,41.4,45,41,36,0.00,40.00,8,0,13,0.79
2013-8-23,83.1,70.2,60.6,52.6,45.6,35.7,55,42,34,0.00,40.00,7,0,7,0.00
2013-8-24,84.0,67.3,54.9,52.6,41.3,32.7,46,39,34,0.00,40.00,6,0,7,0.00
2013-8-25,87.1,71.5,58.3,55.3,44.1,34.7,43,38,34,0.00,40.00,8,0,16,0.00
2013-8-26,87.3,74.4,63.0,55.5,45.9,37.6,39,36,34,0.00,40.00,6,0,12,0.00
2013-8-27,91.4,79.1,70.2,58.1,49.6,43.5,40,36,32,0.00,40.00,12,1,16,0.00
2013-8-28,83.8,76.6,70.5,52.5,47.7,43.9,40,36,34,0.00,40.00,12,0,12,0.00
2013-8-29,88.7,74.1,63.9,55.9,47.6,41.8,50,40,33,0.00,40.00,0,0,0,0.00
2013-8-30,91.9,77.1,66.6,58.1,49.4,42.9,47,38,32,0.00,40.00,12,1,16,0.00
2013-8-31,80.4,72.1,68.0,50.3,45.9,42.8,42,39,35,0.00,40.00,8,0,8,0.04
2013-9-1,83.8,73.3,67.1,56.4,48.0,44.0,52,41,34,0.00,40.00,10,0,12,0.00
2013-9-2,79.9,69.5,60.6,49.8,43.8,35.7,47,40,35,0.00,40.00,11,1,17,0.04
2013-9-3,76.5,63.5,54.5,47.5,38.0,31.3,41,39,36,0.00,40.00,7,0,12,0.00
2013-9-4,82.0,65.2,53.1,51.7,40.0,31.6,47,40,35,0.00,40.00,7,0,17,0.00
2013-9-5,80.6,65.3,55.0,50.4,39.6,31.5,44,39,35,0.00,40.00,7,0,12,0.00
2013-9-6,82.2,65.0,49.3,51.8,39.0,27.1,42,39,35,0.00,40.00,6,0,11,0.00
2013-9-7,88.3,71.2,61.3,55.8,43.7,36.2,41,37,33,0.00,40.00,11,1,15,0.04
2013-9-8,77.0,69.9,64.4,50.1,44.8,41.6,48,41,36,0.00,40.00,0,0,12,0.00
2013-9-9,91.9,75.9,63.9,58.1,47.0,38.2,39,36,32,0.00,40.00,10,1,16,0.00
2013-9-10,97.3,82.4,72.0,61.9,51.6,44.3,38,35,31,0.00,40.00,12,1,14,0.00
2013-9-11,95.7,78.5,70.0,61.1,48.9,42.7,38,35,32,0.00,40.00,12,1,17,0.00
2013-9-12,82.0,70.8,58.8,51.7,43.8,34.1,42,38,35,0.00,40.00,12,1,16,0.00
2013-9-13,66.2,57.5,46.8,39.8,33.3,24.9,42,40,38,0.00,40.00,12,2,17,0.00
2013-9-14,71.1,54.1,39.4,43.5,30.7,19.3,45,41,37,0.00,40.00,10,0,10,0.00
2013-9-15,63.0,56.9,50.4,37.6,32.9,27.5,42,40,39,0.00,40.00,4,0,7,0.04
2013-9-16,70.2,58.4,49.1,42.9,34.8,27.0,45,41,37,0.00,40.00,10,0,10,0.04
2013-9-17,71.4,57.2,43.3,43.8,33.1,22.3,44,40,37,0.00,0.00,8,0,8,0.00
2013-9-18,82.6,67.3,56.3,51.7,40.6,32.3,40,38,34,0.00,0.00,11,0,11,0.08
2013-9-19,71.6,67.7,65.1,52.3,45.3,41.0,51,45,38,0.00,0.00,12,0,12,2.44
2013-9-20,73.2,69.9,60.8,52.6,44.9,36.9,49,41,37,0.00,0.00,16,0,16,0.00
2013-9-21,68.0,59.5,51.4,41.3,35.5,29.1,45,41,38,0.00,0.00,16,1,16,0.04
2013-9-22,67.1,55.5,46.2,40.6,31.9,24.5,43,41,38,0.00,0.00,14,0,14,0.00
2013-9-23,70.2,53.4,40.3,42.9,30.4,20.6,45,41,37,0.00,0.00,8,0,8,0.00
2013-9-24,71.8,56.8,46.2,43.9,32.7,24.5,43,40,37,0.00,0.00,12,0,12,0.00
2013-9-25,73.6,58.1,47.3,45.4,34.0,25.8,43,40,36,0.00,0.00,9,0,9,0.00
2013-9-26,77.9,59.4,45.9,48.8,35.3,25.2,46,41,36,0.00,0.00,8,0,8,0.00
2013-9-27,79.0,62.3,47.8,49.3,36.9,25.8,42,39,35,0.00,0.00,8,0,8,0.00
2013-9-28,80.4,66.5,54.3,50.3,40.0,31.1,41,38,35,0.00,0.00,17,1,17,0.00
2013-9-29,69.4,62.1,49.8,42.0,36.9,27.6,42,39,37,0.00,0.00,15,0,15,0.24
2013-9-30,72.5,56.7,43.5,44.6,33.1,23.0,45,41,37,0.00,0.00,12,0,12,0.00
2013-10-1,75.4,65.1,57.9,46.4,40.0,33.7,44,40,36,0.00,0.00,18,1,18,0.00
2013-10-2,82.4,68.7,61.7,51.8,42.7,38.2,46,39,34,0.00,0.00,8,0,8,0.00
2013-10-3,73.9,67.2,62.8,51.6,43.1,37.4,47,42,37,0.00,0.00,11,0,11,0.79
2013-10-4,81.0,70.5,63.1,50.7,45.1,40.4,46,40,35,0.00,0.00,10,0,10,0.08
2013-10-5,79.2,69.6,65.8,61.7,49.0,43.5,65,48,36,0.00,0.00,11,0,11,0.55
2013-10-6,66.9,58.9,44.8,54.1,40.9,23.6,67,52,39,0.00,0.00,12,0,12,0.28
2013-10-7,61.3,49.9,42.8,36.2,27.7,21.8,45,42,39,0.00,0.00,14,0,14,0.00
2013-10-8,73.0,56.8,46.4,45.2,33.0,25.1,45,41,37,0.00,0.00,11,0,11,0.00
2013-10-9,72.7,56.5,44.6,44.9,32.5,23.5,43,40,37,0.00,0.00,8,0,8,0.00
2013-10-10,75.4,56.8,43.7,46.4,32.9,23.2,44,40,36,0.00,0.00,11,0,11,0.00
2013-10-11,75.9,58.5,45.3,47.0,34.1,24.1,43,40,36,0.00,0.00,11,0,11,0.00
2013-10-12,77.5,63.6,53.1,48.5,37.9,30.0,41,39,36,30.10,0.00,18,1,18,0.00
2013-10-13,65.7,52.6,42.6,39.3,29.9,21.5,45,42,38,30.37,30.10,17,0,17,0.00
2013-10-14,66.2,49.5,38.1,39.8,27.3,18.4,45,42,38,30.37,30.16,11,0,11,0.00
2013-10-15,64.2,57.2,49.5,40.2,33.6,27.2,45,41,39,30.19,29.81,16,1,16,0.16
2013-10-16,61.5,50.8,43.7,40.0,29.3,24.2,47,43,41,29.92,29.83,14,0,14,0.00
2013-10-17,52.9,49.0,42.3,30.2,27.0,21.8,44,42,41,29.92,29.81,13,0,13,0.08
2013-10-18,59.7,46.4,39.4,34.7,25.0,19.8,46,43,39,29.95,29.86,6,0,14,0.00
2013-10-19,54.3,46.0,41.0,30.9,24.5,20.2,44,43,41,29.92,29.78,12,0,12,0.08
2013-10-20,61.7,51.1,39.2,36.5,28.3,19.1,44,41,39,29.89,29.78,20,0,20,0.00
2013-10-21,57.0,49.6,36.3,32.9,27.3,17.0,45,42,40,29.92,29.81,19,1,19,0.00
2013-10-22,47.7,37.1,28.8,38.7,26.2,11.5,78,66,45,29.95,29.86,13,0,13,0.00
2013-10-23,43.7,37.8,34.0,35.8,30.8,27.8,78,76,73,29.98,29.83,12,0,12,0.28
2013-10-24,44.1,38.1,33.8,36.0,30.9,27.0,76,75,73,30.22,29.95,12,0,12,0.04
2013-10-25,49.5,39.0,28.6,40.4,31.6,22.4,78,75,71,30.34,30.10,17,0,17,0.00
2013-10-26,55.6,44.8,38.3,45.2,36.4,31.1,75,72,67,30.10,29.83,22,2,22,0.00
2013-10-27,55.0,42.0,30.2,45.1,34.0,23.7,78,73,69,30.04,29.95,16,1,16,0.00
2013-10-28,60.1,43.1,31.1,48.5,34.9,24.4,78,73,66,30.31,30.01,9,0,9,0.00
2013-10-29,56.7,43.9,32.5,45.7,35.6,26.4,78,73,67,30.34,30.16,11,0,11,0.00
2013-10-30,61.3,52.3,39.9,50.3,42.7,32.6,75,70,66,30.16,29.83,12,0,12,0.79
2013-10-31,63.9,61.5,59.5,57.0,55.0,50.3,84,79,71,29.83,29.24,19,1,19,1.34
2013-11-1,62.2,47.9,45.7,56.7,39.9,37.5,82,74,71,29.72,29.30,24,0,24,0.12
2013-11-2,47.7,44.1,40.8,42.4,37.1,33.8,82,76,73,30.10,29.72,4,0,4,0.16
2013-11-3,52.0,43.2,38.1,41.9,35.9,33.0,84,76,69,30.28,30.07,7,0,7,0.04
2013-11-4,54.5,47.1,39.6,44.5,38.3,32.3,75,72,69,30.31,30.16,15,0,15,0.00
2013-11-5,56.7,53.4,50.0,45.8,43.3,40.2,69,69,67,30.28,30.04,22,1,22,0.00
2013-11-6,58.1,52.1,41.7,47.8,43.6,35.4,78,73,67,30.07,29.81,21,2,21,0.67
2013-11-7,47.8,40.6,31.1,38.9,33.6,25.2,80,76,71,30.19,30.07,10,0,10,0.00
2013-11-8,48.7,38.8,28.6,39.6,31.5,22.6,78,75,71,30.31,30.07,12,0,12,0.00
2013-11-9,60.3,50.5,44.6,48.9,41.1,36.5,73,70,66,30.07,29.86,22,3,22,0.00
2013-11-10,47.3,40.5,32.7,38.4,32.9,26.0,76,74,71,30.28,30.01,16,0,16,0.00
2013-11-11,46.8,39.6,28.6,38.0,32.1,22.6,78,74,71,30.37,30.07,12,0,12,0.16
2013-11-12,32.9,26.9,20.7,26.8,21.3,16.0,82,79,78,30.57,30.37,0,0,0,0.00
2013-11-13,35.8,26.8,16.9,29.0,21.1,12.9,84,79,76,30.54,30.19,15,0,15,0.04
2013-11-14,51.1,39.1,30.0,41.3,31.4,23.7,78,74,69,30.19,29.95,21,0,21,0.04
2013-11-15,50.2,43.9,36.7,40.8,35.7,29.8,76,73,69,30.01,29.95,15,0,15,0.00
2013-11-16,58.5,50.5,40.5,48.3,41.1,33.0,75,70,67,29.98,29.66,21,2,21,0.08
2013-11-17,64.4,57.8,44.2,53.3,47.7,36.1,75,69,66,29.69,29.24,38,2,38,0.59
2013-11-18,44.2,39.6,35.8,36.1,32.2,29.0,76,75,73,30.19,29.69,18,0,18,0.00
2013-11-19,46.6,36.7,29.7,37.9,29.7,23.6,78,75,71,30.31,30.19,6,0,6,0.00
2013-11-20,45.3,36.8,28.0,37.2,29.6,22.1,78,75,73,30.31,30.10,16,0,16,0.04
2013-11-21,50.0,45.6,40.1,40.8,37.2,32.8,75,72,69,30.19,30.13,12,0,12,0.35
2013-11-22,46.9,39.4,27.7,39.1,32.5,21.7,78,76,73,30.40,30.13,16,0,16,0.04
2013-11-23,30.0,25.5,22.3,24.0,20.0,16.9,80,79,78,30.54,30.34,0,0,0,0.00
2013-11-24,26.6,22.0,19.0,21.3,17.0,14.4,82,81,80,30.60,30.40,0,0,0,0.00
2013-11-25,31.8,26.3,19.2,25.1,20.6,14.6,82,79,76,30.40,30.07,0,0,0,0.00
2013-11-26,33.6,30.4,27.3,26.9,24.1,21.4,78,77,76,30.07,29.95,11,0,11,0.00
2013-11-27,29.3,25.5,20.1,23.1,20.1,15.5,82,80,78,30.22,29.98,0,0,0,0.00
2013-11-28,34.7,26.3,21.2,27.9,20.6,16.2,82,79,76,30.40,30.16,9,0,9,0.00
2013-11-29,37.2,29.0,23.4,30.2,23.0,18.1,80,78,76,30.57,30.40,9,0,9,0.00
2013-11-30,48.9,36.6,27.5,39.9,29.4,21.5,78,75,71,30.43,30.04,16,0,16,0.20
2013-12-1,44.1,34.9,28.2,36.0,28.0,22.2,78,76,73,30.07,29.95,11,0,11,0.04
2013-12-2,42.4,34.0,25.9,34.4,27.4,20.6,80,77,73,29.95,29.81,7,0,7,0.04
2013-12-3,49.6,41.9,35.1,41.3,34.3,28.3,76,74,71,29.81,29.72,14,0,14,0.08
2013-12-4,59.5,51.3,45.3,50.4,43.2,37.9,78,74,69,29.78,29.57,12,0,12,0.04
2013-12-5,58.5,35.4,26.8,48.3,28.4,20.8,78,75,69,30.19,29.63,21,0,21,0.00
2013-12-6,27.7,26.2,24.1,21.7,20.6,18.8,80,79,78,30.40,30.16,0,0,0,0.00
2013-12-7,24.1,20.3,13.3,18.8,15.5,9.4,84,82,80,30.60,30.40,0,0,0,0.00
2013-12-8,27.0,21.4,12.0,21.3,16.5,8.1,84,81,78,30.51,29.92,0,0,0,0.00
2013-12-9,26.1,22.3,13.5,20.7,17.3,9.2,84,81,80,30.16,29.89,0,0,0,0.00
2013-12-10,23.9,15.6,3.7,18.6,11.4,0.0,84,83,80,30.25,29.98,0,0,0,0.04
2013-12-11,24.6,18.5,7.9,19.3,14.0,4.1,84,82,80,30.45,30.22,0,0,0,0.00
2013-12-12,19.8,10.7,-4.4,15.2,6.7,-8.0,84,84,82,30.48,30.19,0,0,0,0.00
2013-12-13,32.4,22.3,12.6,25.5,17.2,8.6,84,81,76,30.19,30.10,0,0,0,0.00
2013-12-14,27.9,25.5,21.7,21.9,20.0,16.5,80,79,78,30.10,29.83,0,0,0,0.00
2013-12-15,26.4,17.6,6.1,21.1,13.2,2.3,84,83,80,30.07,29.86,0,0,0,0.00
2013-12-16,22.8,15.4,3.6,17.6,11.0,-0.4,84,83,80,30.13,29.98,0,0,0,0.00
2013-12-17,28.4,22.8,16.3,22.4,17.7,12.4,84,81,78,30.04,29.92,0,0,0,0.00
2013-12-18,36.0,23.1,8.8,29.1,17.8,4.9,84,80,76,30.16,29.86,12,0,17,0.00
2013-12-19,44.6,38.5,32.2,36.5,31.2,25.5,78,75,73,29.95,29.81,11,0,12,0.24
2013-12-20,42.4,39.1,35.4,35.1,32.8,30.5,82,78,75,29.81,29.69,0,0,5,0.12
2013-12-21,36.0,35.0,33.6,31.9,30.6,29.6,87,84,82,29.81,29.54,11,0,11,0.59
2013-12-22,34.9,33.4,30.9,33.3,31.2,26.8,94,92,87,30.04,29.48,5,0,11,0.16
2013-12-23,30.7,22.2,5.9,26.8,17.5,2.1,85,82,78,30.37,30.04,0,0,0,0.00
2013-12-24,18.3,9.7,2.8,13.7,5.9,-0.9,84,84,82,30.48,30.37,0,0,0,0.00
2013-12-25,27.9,23.5,18.1,21.7,18.3,13.6,82,80,78,30.40,30.07,0,0,0,0.00
2013-12-26,33.6,26.3,17.4,26.9,20.7,13.2,84,79,76,30.25,30.04,0,0,0,0.00
2013-12-27,42.4,35.3,27.0,34.4,28.4,21.0,78,76,73,30.28,30.10,10,0,17,0.04
2013-12-28,50.4,40.4,32.4,40.8,32.7,25.6,78,74,69,30.10,29.86,15,0,15,0.00
2013-12-29,40.6,33.1,22.5,33.3,26.6,17.2,80,77,75,30.07,29.75,12,0,12,0.00
2013-12-30,22.5,17.6,13.5,17.2,13.3,9.5,84,83,80,30.25,30.07,0,0,0,0.00
2013-12-31,15.4,13.2,8.1,11.5,9.3,4.2,84,84,84,30.31,30.10,10,0,10,0.00
2014-1-1,20.8,17.4,14.2,16.2,13.2,10.2,84,83,82,30.25,30.10,6,0,6,0.00
2014-1-2,16.7,12.3,1.4,12.7,8.4,-2.3,84,84,84,30.31,30.01,17,1,17,0.00